Regional Weather Roundup
Issued by NWS

Home | Current Version | Previous Version | Graphics & Text | Print | Product List | Glossary On
Versions: 1 2 3 4 5 6 7 8 9 10 11 12 13 14 15 16 17 18 19 20 21 22 23 24 25 26 27 28 29 30 31 32 33 34 35 36 37 38 39 40 41 42 43 44 45 46 47 48 49 50
000
ASUS43 KDMX 040204
RWRIA

WEATHER ROUNDUP FOR IOWA
NATIONAL WEATHER SERVICE DES MOINES IA
  ISSUED BY NWS QUAD CITIES IA IL
800 PM CST TUE MAR 03 2015

NOTE: "FAIR" INDICATES FEW OR NO CLOUDS BELOW 12,000 FEET WITH NO
SIGNIFICANT WEATHER AND/OR OBSTRUCTIONS TO VISIBILITY.

* - THESE STATIONS ARE NOT NWS STATIONS...THUS NOT UNDER NWS
QUALITY CONTROL.  THEY ALSO DO NOT REPORT WEATHER SUCH
AS PRECIPITATION OR FOG.

IAZ001>003-012>014-020>022-031>034-043>046-040300-
   NORTHWEST IOWA

CITY           SKY/WX    TMP DP  RH WIND       PRES   REMARKS
CARROLL *      PTCLDY    16   9  73 NW18G24   30.03R WCI  -1
CHEROKEE *     CLEAR     13   6  73 NW10      30.07R WCI   0
DENNISON *     FAIR      16   7  67 N13G20    30.03R WCI   2
LE MARS *      CLEAR     14   7  73 NW9       30.09R WCI   2
ORANGE CITY *  CLEAR     14   5  67 NW13      30.05R WCI   0
SHELDON *      PTCLDY    10   3  72 NW15G21   30.04R WCI  -6
SIOUX CITY     CLEAR     18   6  59 N14       30.08R WCI   4
SPENCER        PTCLDY    12   4  70 NW12      30.04R WCI  -2
STORM LAKE *   PTCLDY    12   5  73 NW18G25   30.04R WCI  -5
$$

IAZ055>058-069>071-079>083-090>094-040300-
   SOUTHWEST IOWA

CITY           SKY/WX    TMP DP  RH WIND       PRES   REMARKS
ATLANTIC *     MOCLDY    21  10  63 N17G24    30.02R WCI   7
AUDUBON *      MOCLDY    19  12  73 NW18G25   30.02R WCI   4
CLARINDA *     CLOUDY    27  19  74 N14       30.03R WCI  15
COUNCIL BLFS * PTCLDY    21   7  53 MISG      30.03R
CRESTON *      CLOUDY    25  18  74 N14G21    29.99R WCI  13
HARLAN *       FAIR      19  10  68 N22G31    30.06R WCI   3
LAMONI         CLOUDY    29  21  72 N18       29.97R WCI  16
RED OAK *      MOCLDY    25  14  63 N15       30.04R WCI  12
SHENANDOAH *   CLOUDY    27  14  59 N13       30.04R WCI  16
$$

IAZ047>049-059>061-072>074-084-040300-
   CENTRAL IOWA

CITY           SKY/WX    TMP DP  RH WIND       PRES   REMARKS
AMES           MOCLDY    22  13  68 NW20G29   29.99R WCI   7
ANKENY *       MOCLDY    25  16  68 NW18G25   30.00R WCI  11
BOONE *        MOCLDY    21  14  73 NW20      29.97R WCI   6
CHARITON *     CLOUDY    28  19  69 NW17      29.98R WCI  16
DES MOINES     CLOUDY    26  16  65 N14       30.00R WCI  14
GRINNELL *     MOCLDY    23  17  78 NW15      29.95R WCI  10
KNOXVILLE *    CLOUDY    28  19  69 NW17G24   29.96R WCI  16
MARSHALLTOWN   PTCLDY    19  12  74 NW23      29.96R WCI   2
NEWTON *       MOCLDY    23  16  74 NW15      29.97R WCI  10
PELLA *        MOCLDY    27  22  82 NW16      29.98R WCI  14
PERRY *          N/A     22  16  76 NW13G21   30.01R WCI  10
$$

IAZ004>006-015-016-023>025-035-036-040300-
   NORTH CENTRAL IOWA

CITY           SKY/WX    TMP DP  RH WIND       PRES   REMARKS
ALGONA *       PTCLDY    14 N/A N/A NW20G26   30.02R WCI  -3
CLARION *      MOCLDY    16  10  79 NW14G21   30.01R WCI   1
ESTHERVILLE    CLEAR     11   4  73 NW20      30.01R WCI  -7
FORT DODGE *   PTCLDY    16   7  67 NW9G16    30.03R WCI   4
MASON CITY     PTCLDY    13   5  70 NW23G29   29.98R WCI  -6
FOREST CITY *  FAIR      14   7  73 NW22G28   29.98R WCI  -4
WEBSTER CITY * PTCLDY    18  16  93 NW21G29   29.99R WCI   1
IOWA FALLS *   FAIR      17  11  78 NW26G32   29.98R WCI  -1
$$

IAZ007>011-017>019-026>030-037>042-050>054-066-040300-
   NORTHEAST IOWA

CITY           SKY/WX    TMP DP  RH WIND       PRES   REMARKS
CEDAR RAPIDS   MOCLDY    24  18  77 NW20      29.90R WCI  10
CHARLES CITY * PTCLDY    16   9  73 NW22G29   29.94R WCI  -2
CLINTON *      CLOUDY    30  25  80 NW24      29.88R WCI  16
DECORAH *      CLOUDY    18  10  73 NW12G22   29.88R WCI   5
DUBUQUE          N/A    N/A N/A N/A MISG      29.84R
MONTICELLO *   CLOUDY    27  21  80 NW17G28   29.88R WCI  14
OELWEIN *      MOCLDY    18  10  73 NW20G25   29.91R WCI   1
WATERLOO       PTCLDY    19  12  74 NW15G28   29.94R WCI   5
$$

IAZ064-065-067-068-078-040300-
   EAST CENTRAL IOWA

CITY           SKY/WX    TMP DP  RH WIND       PRES   REMARKS
DAVENPORT      CLOUDY    31  24  75 W21       29.88R WCI  18
IOWA CITY      CLOUDY    27  20  75 NW17G25   29.92R WCI  14
MT. PLEASANT * CLOUDY    32  25  75 NW15G22   29.94R WCI  22
MUSCATINE *    CLOUDY    30  23  74 NW18G26   29.93R WCI  18
QUAD CITIES    CLOUDY    33  25  72 W12       29.88R WCI  24
$$

IAZ062-063-075>077-085>089-095>099-040300-
   SOUTHEAST IOWA

CITY           SKY/WX    TMP DP  RH WIND       PRES   REMARKS
BURLINGTON     CLOUDY    33  27  78 NW5       29.91R WCI  29
FAIRFIELD *    CLOUDY    28  23  80 NW22      29.95R WCI  15
FORT MADISON * CLOUDY    34  28  80 W5        29.93R WCI  30
KEOKUK *       CLOUDY    36  28  75 NW8       29.92R WCI  29
OSKALOOSA *    FAIR      27  20  75 N20       29.97R WCI  13
CENTERVILLE *  CLOUDY    30  25  80 NW17      29.98R WCI  18
OTTUMWA        CLOUDY    28  22  78 NW16      29.96R WCI  16
WASHINGTON *   CLOUDY    30  28  93 NW17G25   29.93R WCI  18
$$

ABBREVIATIONS USED IN REMARKS
   TC - TEMPERATURES IN CELSIUS
  WCI - WIND CHILL INDEX
   HX - HEAT INDEX
  VSB - VISIBILITY
$$



USA.gov is the U.S. government's official web portal to all federal, state and local government web resources and services.